Christmas Island, Christmas Island

3:04 AM +07 on July 24, 2017 (GMT +0700)
Christmas Island

Weather History for YPXM - March, 2013

Change the Weather History Date:

Saturday, March 9, 2013

  Actual Average Record
Temperature  
Mean Temperature 78 °F -  
Max Temperature 82 °F 79 °F 86 °F (2016)
Min Temperature 73 °F 72 °F 71 °F (1997)
Cooling Degree Days 12    
Growing Degree Days 28 (Base 50)    
Moisture  
Dew Point 69 °F    
Average Humidity 78    
Maximum Humidity 100    
Minimum Humidity 40    
Precipitation  
Precipitation 0.08 in - - ()
Sea Level Pressure  
Sea Level Pressure 29.87 in    
Wind  
Wind Speed 2 mph ()    
Max Wind Speed 6 mph    
Max Gust Speed -    
Visibility 6.1 miles    
Events Rain    
Averages and records for this station are not official NWS values.
T = Trace of Precipitation, MM = Missing Value Source: Averaged Metar Reports

Daily Weather History Graph

Daily Weather History Graph

Search for Another Location

Airport or City:

Trip Planner

Search our weather history database for the weather conditions in past years. The results will help you decide how hot, cold, wet, or windy it might be!

Date:

Astronomy

Mar. 09, 2013 Rise Set
Actual Time 6:01 AM +07 6:14 PM +07
Civil Twilight 5:40 AM +07 6:35 PM +07
Nautical Twilight 5:15 AM +07 6:59 PM +07
Astronomical Twilight 4:50 AM +07 7:24 PM +07
Moon 3:26 AM +07 (3/9) 4:09 PM +07 (3/9)
Length of Visible Light 12h 55m
Length of Day
12h 13m
Waning Crescent, 8% of the Moon is Illuminated
Mar 9
Waning Crescent
Mar 12
New
Mar 20
First Quarter
Mar 27
Full
Apr 3
Last Quarter

Hourly Weather History & Observations

Time (+07) Temp. Heat Index Dew Point Humidity Pressure Visibility Wind Dir Wind Speed Gust Speed Precip Events Conditions
12:00 AM 74 °F - 72 °F 91% 29.88 in - Calm Calm - -  
12:00 AM 73.4 °F - 71.6 °F 94% 29.92 in 6.2 mi Calm Calm - N/A   Unknown
1:00 AM 73 °F - 72 °F 94% 29.86 in - Calm Calm - -  
1:00 AM 73.4 °F - 71.6 °F 94% 29.89 in 6.2 mi Calm Calm - N/A   Unknown
2:00 AM 73.4 °F - 71.6 °F 94% 29.89 in 6.2 mi WSW 3.5 mph - N/A   Unknown
3:00 AM 74 °F - 71 °F 89% 29.84 in - WSW 4.6 mph - -  
3:00 AM 73.4 °F - 71.6 °F 94% 29.86 in - WSW 4.6 mph - N/A   Unknown
4:00 AM 74 °F - 72 °F 91% 29.83 in - WSW 2.3 mph - -  
4:00 AM 73.4 °F - 71.6 °F 94% 29.86 in 6.2 mi WSW 2.3 mph - N/A   Unknown
5:00 AM 73.4 °F - 71.6 °F 94% 29.86 in 6.2 mi SW 3.5 mph - N/A   Unknown
6:00 AM 74 °F - 72 °F 94% 29.84 in - SW 3.5 mph - -   Overcast
6:00 AM 75.2 °F - 73.4 °F 94% 29.89 in - SW 3.5 mph - N/A   Overcast
7:00 AM 76 °F - 73 °F 88% 29.86 in - SW 3.5 mph - -  
7:00 AM 77.0 °F - 73.4 °F 89% 29.89 in - SW 3.5 mph - N/A   Overcast
8:00 AM 78.8 °F - 73.4 °F 83% 29.92 in - South 3.5 mph - N/A   Mostly Cloudy
9:00 AM 82 °F - 73 °F 68% 29.89 in - SSE 5.8 mph - -  
9:00 AM 82.4 °F 88.2 °F 73.4 °F 74% 29.92 in 6.2 mi SSE 5.8 mph - N/A   Scattered Clouds
10:00 AM 79 °F - 59 °F 40% 29.89 in - South 3.5 mph - -  
10:00 AM 78.8 °F - 59.0 °F 51% 29.92 in 6.2 mi South 3.5 mph - N/A Rain Light Rain Showers
11:00 AM 80.6 °F 81.5 °F 60.8 °F 51% 29.92 in 6.2 mi SSE 3.5 mph - N/A Rain Rain Showers
11:58 AM 78.8 °F - 60.8 °F 54% 29.92 in 6.2 mi SSE 3.5 mph - N/A Rain Light Rain Showers
12:00 PM 79 °F - 60 °F 43% 29.87 in - SSE 4.6 mph - -   Overcast
12:00 PM 78.8 °F - 60.8 °F 54% 29.92 in 6.2 mi SSE 4.6 mph - N/A Rain Light Rain Showers
12:33 PM 80.6 °F 81.1 °F 59.0 °F 48% 29.89 in 6.2 mi SE 4.6 mph - N/A   Overcast
1:00 PM 80 °F - 74 °F 79% 29.84 in - SSE 3.5 mph - -  
1:00 PM 80.6 °F 86.2 °F 75.2 °F 84% 29.89 in 6.2 mi SSE 3.5 mph - N/A Rain Light Rain Showers
2:00 PM 78.8 °F - 75.2 °F 89% 29.86 in 5.6 mi South 3.5 mph - N/A Rain Light Rain Showers
2:29 PM 77.0 °F - 73.4 °F 89% 29.83 in 3.7 mi SSW 5.8 mph - N/A Rain Light Rain Showers
3:00 PM 78 °F - 75 °F 86% 29.80 in - SW 3.5 mph - -   Overcast
3:00 PM 78.8 °F - 75.2 °F 89% 29.83 in 6.2 mi SW 3.5 mph - N/A Rain Light Rain Showers
3:07 PM 78.8 °F - 73.4 °F 83% 29.83 in 6.2 mi SW 1.2 mph - N/A   Overcast
4:00 PM 78 °F - 67 °F 61% 29.79 in - SSE 3.5 mph - -  
4:00 PM 78.8 °F - 68.0 °F 69% 29.83 in 6.2 mi SSE 3.5 mph - N/A Rain Light Rain
5:00 PM 78.8 °F - 60.8 °F 54% 29.83 in 6.2 mi South 3.5 mph - N/A   Overcast
6:00 PM 78 °F - 60 °F 43% 29.81 in - Calm Calm - -   Overcast
6:00 PM 78.8 °F - 59.0 °F 51% 29.86 in 6.2 mi Calm Calm - N/A Rain Light Rain Showers
7:00 PM 76 °F - 60 °F 48% 29.83 in - Calm Calm - -  
7:00 PM 77.0 °F - 60.8 °F 57% 29.86 in 6.2 mi Calm Calm - N/A   Mostly Cloudy
8:00 PM 75.2 °F - 73.4 °F 94% 29.89 in 6.2 mi Calm Calm - N/A   Scattered Clouds
9:00 PM 75 °F - 74 °F 96% 29.88 in - Calm Calm - -  
9:00 PM 75.2 °F - 73.4 °F 94% 29.92 in 6.2 mi Calm Calm - N/A   Overcast
10:00 PM 76 °F - 74 °F 93% 29.89 in - WSW 2.3 mph - -  
10:00 PM 75.2 °F - 75.2 °F 100% 29.92 in 6.2 mi WSW 2.3 mph - N/A   Overcast
11:00 PM 75.2 °F - 73.4 °F 94% 29.92 in 6.2 mi WSW 3.5 mph - N/A   Overcast